WetterOnline ( https://www.wetteronline.de )

Wetter aktuell Weißbach

Aktuelles Wetter: Öhringen (277m)

6-stündlich | Neueste Meldungen
Ortszeit Temperatur Wetter
So, 22.05. 2:00 11.3° C wolkenlos
Sa, 21.05. 20:00 19.3° C wolkig
Sa, 21.05. 14:00 18.4° C wolkig
Sa, 21.05. 8:00 13.4° C wolkig
Sa, 21.05. 2:00 17.8° C bedeckt
Fr, 20.05. 20:00 23.3° C bewölkt
Fr, 20.05. 14:00 29.0° C leicht bewölkt
Fr, 20.05. 8:00 18.5° C bewölkt
Ortszeit Temperatur Wetter
So, 22.05. 7:00 11.2° C wolkig
So, 22.05. 6:50 11.2° C wolkig
So, 22.05. 6:40 10.3° C bewölkt
So, 22.05. 6:30 10.1° C wolkig
So, 22.05. 6:20 10.1° C wolkig
So, 22.05. 6:10 9.9° C bewölkt
So, 22.05. 6:00 9.8° C wolkig
So, 22.05. 5:30 9.8° C wolkig
So, 22.05. 5:00 9.7° C leicht bewölkt
So, 22.05. 4:30 10.0° C fast wolkenlos
So, 22.05. 4:00 10.3° C wolkenlos
Ortszeit Relative Feuchte Sichtweite
So, 22.05. 2:00 86% 45 km
Sa, 21.05. 20:00 48% >70 km
Sa, 21.05. 14:00 51% 60 km
Sa, 21.05. 8:00 79% 35 km
Sa, 21.05. 2:00 90% 27 km
Fr, 20.05. 20:00 69% 30 km
Fr, 20.05. 14:00 38% 50 km
Fr, 20.05. 8:00 82% 30 km
Ortszeit Relative Feuchte Sichtweite
So, 22.05. 7:00 84% 45 km
So, 22.05. 6:50 84% -
So, 22.05. 6:40 85% -
So, 22.05. 6:30 86% 40 km
So, 22.05. 6:20 86% -
So, 22.05. 6:10 87% -
So, 22.05. 6:00 86% 40 km
So, 22.05. 5:30 87% 40 km
So, 22.05. 5:00 88% 40 km
So, 22.05. 4:30 87% 35 km
So, 22.05. 4:00 86% 45 km
Ortszeit Niederschlagsmenge Niederschlagsart
So, 22.05. 2:00 0.0 l/m2 in 6 Std. -
Sa, 21.05. 20:00 0.0 l/m2 in 12 Std. -
Sa, 21.05. 14:00 0.0 l/m2 in 6 Std. -
Sa, 21.05. 8:00 5 l/m2 in 12 Std. -
Sa, 21.05. 2:00 5 l/m2 in 6 Std. Regen
Fr, 20.05. 20:00 3 l/m2 in 12 Std. Regen
Fr, 20.05. 14:00 0.0 l/m2 in 6 Std. -
Fr, 20.05. 8:00 0.6 l/m2 in 12 Std. Regen
Ortszeit Niederschlagsmenge Niederschlagsart
So, 22.05. 7:00 0.0 l/m2 in 1 Std. -
So, 22.05. 6:50 keine Meldung -
So, 22.05. 6:40 keine Meldung -
So, 22.05. 6:30 0.0 l/m2 in 1 Std. -
So, 22.05. 6:20 keine Meldung -
So, 22.05. 6:10 keine Meldung -
So, 22.05. 6:00 0.0 l/m2 in 1 Std. -
So, 22.05. 5:30 0.0 l/m2 in 1 Std. -
So, 22.05. 5:00 0.0 l/m2 in 1 Std. -
So, 22.05. 4:30 0.0 l/m2 in 1 Std. -
So, 22.05. 4:00 0.0 l/m2 in 1 Std. -
Ortszeit Stärke Spitze Richtung
km/h Bft. km/h Grad Sektor
So, 22.05. 2:00 4 1 11 100° O
Sa, 21.05. 20:00 7 2 31 300° NW
Sa, 21.05. 14:00 18 3 36 260° W
Sa, 21.05. 8:00 14 3 36 250° W
Sa, 21.05. 2:00 14 3 54 270° W
Fr, 20.05. 20:00 6 1 57 290° W
Fr, 20.05. 14:00 7 2 24 190° S
Fr, 20.05. 8:00 4 1 11 70° O
Ortszeit Stärke Spitze Richtung
km/h Bft. km/h Grad Sektor
So, 22.05. 7:00 4 1 7 50° NO
So, 22.05. 6:50 4 1 - 50° NO
So, 22.05. 6:40 4 1 - 340° N
So, 22.05. 6:30 4 1 7 60° NO
So, 22.05. 6:20 4 1 - 60° NO
So, 22.05. 6:10 4 1 - 80° O
So, 22.05. 6:00 4 1 11 40° NO
So, 22.05. 5:30 7 2 11 60° NO
So, 22.05. 5:00 4 1 7 70° O
So, 22.05. 4:30 4 1 7 70° O
So, 22.05. 4:00 4 1 7 70° O
Ortszeit Untergrenze Bedeckung Gattung
total tief tief mittel hoch
So, 22.05. 2:00 - 0/8 0/8 - - -
Sa, 21.05. 20:00 4500 m 8/8 8/8 - - -
Sa, 21.05. 14:00 1200 m 6/8 6/8 - - -
Sa, 21.05. 8:00 480 m 6/8 6/8 - - -
Sa, 21.05. 2:00 420 m 8/8 8/8 - - -
Fr, 20.05. 20:00 3300 m 7/8 7/8 - - -
Fr, 20.05. 14:00 5100 m 4/8 4/8 - - -
Fr, 20.05. 8:00 3300 m 7/8 7/8 - - -
Ortszeit Bedeckungsgrad in Achtel und Wolkenuntergrenze
So, 22.05. 7:00 2(4200m) 8(8400m) 8(9000m)
So, 22.05. 6:50 2(4200m) 8(8400m) 8(9000m)
So, 22.05. 6:40 7
So, 22.05. 6:30 2(4200m) 6(8100m) 6(9000m)
So, 22.05. 6:20 2(4200m) 6(8100m) 6(9000m)
So, 22.05. 6:10 7
So, 22.05. 6:00 8(7500m) 8(9000m)
So, 22.05. 5:30 6(7800m) 7(9000m)
So, 22.05. 5:00 2(8100m) 3(9000m)
So, 22.05. 4:30 2(10500m)
So, 22.05. 4:00 keine Wolken
Ortszeit Luftdruck NN (hPa) Tendenz (hPa in 3 Std.)
So, 22.05. 2:00 1020 - 0,7
Sa, 21.05. 20:00 1019 - 1,6
Sa, 21.05. 14:00 1022 - 1,1
Sa, 21.05. 8:00 1024 + 1,1
Sa, 21.05. 2:00 1020 + 1,6
Fr, 20.05. 20:00 1014 - 1,0
Fr, 20.05. 14:00 1017 - 2,4
Fr, 20.05. 8:00 1021 - 0,5
Ortszeit Luftdruck NN (hPa) Tendenz (hPa in 3 Std.)
So, 22.05. 7:00 1018 - 0,9
So, 22.05. 6:50 1018 keine Meldung
So, 22.05. 6:40 1018 keine Meldung
So, 22.05. 6:30 1018 - 1,0
So, 22.05. 6:20 1018 keine Meldung
So, 22.05. 6:10 1018 keine Meldung
So, 22.05. 6:00 1018 - 1,1
So, 22.05. 5:30 1018 - 1,5
So, 22.05. 5:00 1019 - 1,0
So, 22.05. 4:30 1019 - 0,8
So, 22.05. 4:00 1019 - 1,0
Ortszeit Schneehöhe (cm)
So, 22.05. 2:00 0
Sa, 21.05. 20:00 0
Sa, 21.05. 14:00 0
Sa, 21.05. 8:00 0
Sa, 21.05. 2:00 0
Fr, 20.05. 20:00 0
Fr, 20.05. 14:00 0
Fr, 20.05. 8:00 0
Ortszeit Schneehöhe (cm)
So, 22.05. 7:00 0
So, 22.05. 6:50 0
So, 22.05. 6:40 0
So, 22.05. 6:30 0
So, 22.05. 6:20 0
So, 22.05. 6:10 0
So, 22.05. 6:00 0
So, 22.05. 5:30 0
So, 22.05. 5:00 0
So, 22.05. 4:30 0
So, 22.05. 4:00 0
Link zu dieser Seite / Seite empfehlen

Das Wetter in ...